[[{"header":{"parameterUnit":"m.s-1","parameterCategory":1,"la1":30.2991,"la2":30.254,"lo1":-89.0895,"lo2":-89.0444,"dy":0.0017,"dx":0.0017,"nx":28,"ny":28,"refTime":"2023-08-25T21:00:00:Z","depth":0,"parameterNumber":2,"parameterNumberName":"U-component_of_WINDS"},"data":[0,0,0,0,0,0,0,0,0,0,0,0,0,0,0,0,0,0,0,0,0,0,0,0,0,0,0,0,0,0,0,0,0,0,0,0,0,0,0,0,0,0,0,0,0,0,0,0,0,0,0,0,0,0,0,0,0,0,-0.5301,-0.5301,0,-0.5307,-0.5307,-0.5307,-0.5255,-0.5253,-0.5252,-0.525,-0.5265,-0.5267,-0.5269,0,0,0,0,0,0,0,0,0,0,0,0,0,-0.5248,-0.525,-0.5301,-0.5301,-0.5301,-0.5307,-0.5307,-0.5307,-0.5255,-0.5253,-0.5251,-0.525,-0.5264,-0.5267,-0.5269,0,0,0,0,0,0,0,0,0,0,0,0,0,-0.5265,-0.525,-0.5301,-0.5276,-0.5273,-0.5307,-0.5307,-0.5307,-0.5255,-0.5253,-0.5251,-0.5249,-0.5264,-0.5266,-0.5269,-0.533,0,0,-0.5277,-0.5278,0,0,0,0,0,0,0,0,-0.5264,-0.5267,-0.5279,-0.5277,-0.5275,-0.5278,-0.5294,-0.5315,-0.5256,-0.5263,-0.525,-0.5248,-0.5272,-0.5273,-0.528,-0.5331,-0.5331,-0.5277,-0.5279,-0.528,-0.5281,0,0,0,0,0,0,0,-0.5263,-0.5266,-0.5304,-0.528,-0.5277,-0.5265,-0.5265,-0.5298,-0.528,-0.5262,-0.5258,-0.5259,-0.527,-0.5277,-0.528,-0.5332,-0.5277,-0.528,-0.5281,-0.5282,-0.5429,-0.5431,0,0,0,0,0,0,-0.5264,-0.5266,-0.5304,-0.5304,-0.5264,-0.5268,-0.5268,-0.5279,-0.5279,-0.5277,-0.5261,-0.5256,-0.5274,-0.5277,-0.528,-0.535,-0.528,-0.5283,-0.5284,-0.5427,-0.543,-0.5432,0,0,0,0,0,0,-0.5263,-0.5268,-0.5303,-0.5284,-0.5287,-0.5271,-0.5285,-0.5281,-0.5288,-0.5278,-0.5276,-0.5271,-0.5272,-0.5276,-0.5317,-0.535,-0.5284,-0.5286,-0.5424,-0.5428,-0.5431,-0.5491,0,0,0,0,0,0,-0.5262,-0.5268,-0.5291,-0.5284,-0.5288,-0.5339,-0.5287,-0.5282,-0.5292,-0.5286,-0.5288,-0.5286,-0.5271,-0.5313,-0.5319,-0.5352,-0.5288,-0.5421,-0.5426,-0.543,-0.5486,-0.5496,-0.5504,0,0,0,0,0,-0.526,-0.531,-0.5292,-0.5297,-0.5316,-0.5341,-0.5343,-0.5323,-0.5294,-0.5317,-0.531,-0.5286,-0.5344,-0.5317,-0.5324,-0.5358,-0.5419,-0.5424,-0.5429,-0.5482,-0.5494,-0.5504,0,0,0,0,0,0,-0.5325,-0.5309,-0.5289,-0.5338,-0.534,-0.5332,-0.5361,-0.5337,-0.535,-0.5345,-0.5321,-0.5322,-0.5366,-0.5366,-0.5336,-0.5415,-0.5377,-0.5384,-0.5414,-0.5426,-0.5435,-0.5435,-0.5291,0,0,0,0,0,-0.5344,-0.5363,-0.5349,-0.5394,-0.5395,-0.5377,-0.5388,-0.5371,-0.5374,-0.5376,-0.5373,-0.5379,-0.5397,-0.5412,-0.5429,-0.5484,-0.5484,-0.5511,-0.552,-0.5528,-0.5535,-0.5561,-0.5573,-0.5449,-0.5449,-0.5449,0,0,-0.5385,-0.5379,-0.5393,-0.5406,-0.5406,-0.5428,-0.5379,-0.5406,-0.5422,-0.5381,-0.5418,-0.5415,-0.542,-0.5467,-0.5488,-0.5468,-0.5568,-0.5534,-0.554,-0.5543,-0.5568,-0.558,-0.559,-0.5453,-0.5452,-0.5451,0,0,-0.5471,-0.5468,-0.5503,-0.5503,-0.5502,-0.5489,-0.5497,-0.5491,-0.5487,-0.5522,-0.5491,-0.551,-0.5545,-0.5548,-0.5555,-0.5636,-0.5613,-0.5642,-0.5692,-0.5718,-0.5728,-0.5737,-0.5765,-0.5775,-0.5649,-0.5649,-0.5649,0,-0.5524,-0.5554,-0.5526,-0.5552,-0.5558,-0.5517,-0.5553,-0.5555,-0.5562,-0.5567,-0.5544,-0.5583,-0.5584,-0.563,-0.5649,-0.5656,-0.5664,-0.5644,-0.5728,-0.5737,-0.5744,-0.5771,-0.5782,-0.5652,-0.5652,-0.5652,-0.5651,0,-0.5617,-0.5638,-0.5667,-0.5669,-0.5679,-0.571,-0.5687,-0.57,-0.5681,-0.567,-0.5705,-0.5703,-0.5718,-0.5727,-0.5711,-0.577,-0.5758,-0.5732,-0.5693,-0.576,-0.5785,-0.5795,-0.5657,-0.5656,-0.5655,-0.5654,0,0,-0.5749,-0.5731,-0.5742,-0.5742,-0.5735,-0.5752,-0.578,-0.5791,-0.5802,-0.5806,-0.583,-0.5856,-0.583,-0.5838,-0.5821,-0.5844,-0.5906,-0.5814,-0.5814,-0.5831,-0.597,-0.599,-0.6002,-0.5889,-0.5891,-0.5893,-0.5969,0,-0.5833,-0.5878,-0.5852,-0.5902,-0.592,-0.5879,-0.5903,-0.5902,-0.5892,-0.5907,-0.5896,-0.5915,-0.588,-0.5883,-0.5903,-0.5894,-0.5934,-0.5888,-0.5912,-0.5913,-0.5914,-0.6015,-0.6038,-0.6111,-0.5979,-0.598,-0.5981,0,-0.5938,-0.5942,-0.5993,-0.5979,-0.5986,-0.6008,-0.6014,-0.6028,-0.6026,-0.6016,-0.6021,-0.5997,-0.6024,-0.5982,-0.6019,-0.5988,-0.5996,-0.5992,-0.5994,-0.5998,-0.5953,-0.6022,-0.6134,-0.6145,-0.5997,-0.5995,-0.5994,0,-0.6028,-0.6047,-0.6079,-0.608,-0.6065,-0.6081,-0.6076,-0.607,-0.6077,-0.6082,-0.6086,-0.6096,-0.6102,-0.6109,-0.6088,-0.606,-0.6127,-0.6085,-0.6121,-0.6121,-0.6139,-0.6139,-0.6255,-0.6142,-0.6142,-0.6142,-0.6141,0,-0.6126,-0.6159,-0.6119,-0.6139,-0.6174,-0.6142,-0.6178,-0.6169,-0.6163,-0.6181,-0.6146,-0.6164,-0.6133,-0.6148,-0.6131,-0.6163,-0.6166,-0.616,-0.6155,-0.6164,-0.6165,-0.617,-0.6165,-0.6144,-0.6144,-0.6143,-0.6143,0,-0.6235,-0.6209,-0.6241,-0.6222,-0.6218,-0.6244,-0.6229,-0.6246,-0.6231,-0.6253,-0.6257,-0.6234,-0.6249,-0.6227,-0.6241,-0.6229,-0.6273,-0.626,-0.6273,-0.627,-0.6307,-0.6304,-0.6432,-0.6446,-0.6324,-0.6325,-0.6326,0,-0.6299,-0.6323,-0.6304,-0.6312,-0.6308,-0.6321,-0.6326,-0.6295,-0.6302,-0.6297,-0.6316,-0.6326,-0.6334,-0.6359,-0.6344,-0.6353,-0.6341,-0.6385,-0.6343,-0.6349,-0.6342,-0.6342,-0.6343,-0.6395,-0.6396,-0.6398,-0.6399,0,-0.6416,-0.6401,-0.6409,-0.6411,-0.6418,-0.6419,-0.6418,-0.6427,-0.6393,-0.6402,-0.6415,-0.642,-0.643,-0.6442,-0.6446,-0.6441,-0.6415,-0.6411,-0.642,-0.643,-0.6437,-0.6433,-0.6298,-0.6409,-0.6408,-0.6408,-0.6407,-0.6406,-0.6505,-0.6523,-0.6512,-0.6521,-0.6515,-0.6514,-0.6528,-0.6512,-0.6522,-0.6526,-0.6506,-0.6523,-0.6516,-0.6518,-0.6516,-0.6528,-0.651,-0.6523,-0.6526,-0.653,-0.6536,-0.6432,-0.6529,-0.6529,-0.6529,-0.6528,-0.6528,0,-0.6621,-0.661,-0.6618,-0.6615,-0.6622,-0.6591,-0.6587,-0.6595,-0.6609,-0.6604,-0.661,-0.6623,-0.6632,-0.6615,-0.6621,-0.6635,-0.6622,-0.6637,-0.6637,-0.6636,-0.6553,-0.6544,-0.6647,-0.6647,-0.6647,-0.6647,-0.6647,-0.6647,-0.6682,-0.671,-0.6693,-0.6717,-0.6706,-0.672,-0.672,-0.6718,-0.6713,-0.6728,-0.6734,-0.6721,-0.6711,-0.6715,-0.6721,-0.6716,-0.6721,-0.674,-0.6731,-0.6654,-0.6643,-0.6632,-0.6624,-0.6741,-0.6741,-0.6814,-0.6814,-0.6815]},{"header":{"parameterUnit":"m.s-1","parameterCategory":1,"la1":30.2991,"la2":30.254,"lo1":-89.0895,"lo2":-89.0444,"dy":0.0017,"dx":0.0017,"nx":28,"ny":28,"refTime":"2023-08-25T21:00:00:Z","depth":0,"parameterNumber":3,"parameterNumberName":"V-component_of_WINDS"},"data":[0,0,0,0,0,0,0,0,0,0,0,0,0,0,0,0,0,0,0,0,0,0,0,0,0,0,0,0,0,0,0,0,0,0,0,0,0,0,0,0,0,0,0,0,0,0,0,0,0,0,0,0,0,0,0,0,0,0,0.1779,0.1778,0,0.1751,0.1751,0.1751,0.1713,0.1713,0.1712,0.1711,0.1686,0.1686,0.1686,0,0,0,0,0,0,0,0,0,0,0,0,0,0.18,0.18,0.1779,0.1778,0.1778,0.1751,0.1751,0.1751,0.1713,0.1713,0.1712,0.1711,0.1686,0.1686,0.1686,0,0,0,0,0,0,0,0,0,0,0,0,0,0.1784,0.18,0.1779,0.1756,0.1754,0.1752,0.1751,0.1751,0.1714,0.1713,0.1712,0.1711,0.1686,0.1686,0.1686,0.1704,0,0,0.1685,0.1685,0,0,0,0,0,0,0,0,0.1785,0.1783,0.176,0.1758,0.1755,0.1735,0.1749,0.1735,0.1714,0.1729,0.1711,0.171,0.1703,0.1702,0.1699,0.1703,0.1702,0.1685,0.1685,0.1685,0.1685,0,0,0,0,0,0,0,0.1786,0.1784,0.1768,0.176,0.1757,0.1748,0.1744,0.1746,0.1722,0.1728,0.1725,0.1722,0.1702,0.1699,0.1698,0.1702,0.1685,0.1685,0.1685,0.1685,0.1719,0.1719,0,0,0,0,0,0,0.179,0.1785,0.1769,0.1767,0.1768,0.1748,0.1744,0.1742,0.1722,0.1718,0.1723,0.172,0.1699,0.1698,0.1697,0.1717,0.1685,0.1685,0.1685,0.1718,0.1719,0.172,0,0,0,0,0,0,0.1791,0.1789,0.177,0.1775,0.1772,0.1749,0.1747,0.1742,0.1739,0.1718,0.1714,0.1724,0.1699,0.1697,0.1702,0.1715,0.1685,0.1685,0.1716,0.1718,0.1719,0.1757,0,0,0,0,0,0,0.1791,0.1789,0.1796,0.1776,0.1772,0.1776,0.1748,0.1742,0.1739,0.1735,0.1718,0.1715,0.1698,0.1703,0.1702,0.1715,0.1685,0.1715,0.1717,0.1719,0.1755,0.176,0.1764,0,0,0,0,0,0.1792,0.1809,0.1797,0.1795,0.178,0.1777,0.1775,0.1754,0.174,0.1747,0.1733,0.1715,0.1713,0.1703,0.1703,0.1715,0.1714,0.1717,0.1719,0.1753,0.1759,0.1764,0,0,0,0,0,0,0.1833,0.1806,0.1792,0.1802,0.1792,0.177,0.1778,0.1762,0.1756,0.1753,0.1728,0.1725,0.1733,0.1724,0.1714,0.1731,0.1711,0.1713,0.1737,0.1743,0.1747,0.175,0.1685,0,0,0,0,0,0.1842,0.1841,0.1818,0.1829,0.1824,0.1802,0.18,0.1785,0.1774,0.177,0.1756,0.1746,0.1743,0.1742,0.1739,0.1752,0.1748,0.176,0.1765,0.1769,0.1772,0.1778,0.1783,0.1727,0.1727,0.1727,0,0,0.1863,0.1848,0.1849,0.1837,0.1827,0.1827,0.1799,0.18,0.18,0.177,0.1774,0.1764,0.1751,0.1761,0.1764,0.1754,0.1786,0.1772,0.1775,0.1776,0.1781,0.1786,0.1791,0.1728,0.1728,0.1728,0,0,0.1901,0.1889,0.1897,0.1887,0.1872,0.1857,0.1859,0.1839,0.1831,0.1834,0.1811,0.1811,0.1807,0.1798,0.1794,0.1826,0.181,0.1826,0.1851,0.1857,0.1862,0.1866,0.1878,0.1883,0.1828,0.1828,0.1828,0,0.1929,0.1928,0.1903,0.1906,0.1901,0.1872,0.1879,0.1871,0.1857,0.1854,0.1842,0.1835,0.1825,0.1832,0.1839,0.1836,0.1838,0.1829,0.1863,0.1867,0.187,0.1881,0.1886,0.183,0.183,0.183,0.1829,0,0.1963,0.1962,0.197,0.1955,0.1951,0.1956,0.1933,0.1931,0.1916,0.1902,0.1906,0.1892,0.1884,0.1884,0.187,0.1889,0.1883,0.1867,0.1847,0.1878,0.1888,0.1892,0.1833,0.1832,0.1832,0.1831,0,0,0.2027,0.1997,0.2,0.1993,0.1973,0.1973,0.1976,0.1968,0.1967,0.1957,0.196,0.1956,0.1941,0.1935,0.192,0.1925,0.1952,0.1908,0.1908,0.1918,0.1973,0.1986,0.1992,0.194,0.1941,0.1941,0.1974,0,0.2062,0.2066,0.2043,0.2053,0.2052,0.2024,0.2027,0.2015,0.2002,0.1999,0.1985,0.1982,0.1962,0.1959,0.1963,0.1948,0.1963,0.1945,0.1944,0.1944,0.195,0.1997,0.2011,0.2043,0.1978,0.1979,0.1979,0,0.2103,0.2094,0.2104,0.2083,0.2082,0.2085,0.2075,0.2073,0.2059,0.2049,0.2042,0.2023,0.2025,0.2004,0.2007,0.1996,0.1993,0.1986,0.1987,0.1987,0.1965,0.2,0.2053,0.2058,0.1985,0.1985,0.1984,0,0.215,0.214,0.2145,0.2139,0.2115,0.2118,0.2108,0.2093,0.2089,0.208,0.2078,0.207,0.2066,0.206,0.204,0.2026,0.2045,0.2022,0.2038,0.2039,0.2045,0.2045,0.2099,0.2041,0.2041,0.2041,0.2041,0,0.2192,0.2199,0.2165,0.2168,0.2176,0.2149,0.2157,0.2145,0.2131,0.2132,0.2106,0.2107,0.2079,0.2077,0.2061,0.2066,0.2064,0.2057,0.2053,0.206,0.2062,0.206,0.2058,0.2042,0.2042,0.2041,0.2041,0,0.2246,0.2223,0.2227,0.2202,0.2196,0.2203,0.2183,0.2185,0.2169,0.2169,0.2168,0.2144,0.214,0.2118,0.211,0.2099,0.211,0.2101,0.2115,0.2113,0.213,0.2129,0.2187,0.2193,0.2129,0.2129,0.213,0,0.2275,0.228,0.2256,0.2253,0.2244,0.2241,0.2237,0.2211,0.2208,0.2191,0.2196,0.2189,0.2183,0.2178,0.216,0.2154,0.2145,0.2165,0.2144,0.2151,0.2147,0.2148,0.2149,0.2171,0.2172,0.2172,0.2173,0,0.2329,0.2317,0.2311,0.2301,0.2297,0.2288,0.2278,0.2278,0.2249,0.2246,0.2241,0.2236,0.2227,0.2222,0.2211,0.2202,0.2183,0.2179,0.2183,0.2191,0.22,0.2197,0.2129,0.2179,0.2178,0.2178,0.2177,0.2177,0.2372,0.2375,0.2358,0.2352,0.2342,0.2332,0.2333,0.2317,0.2312,0.2302,0.2287,0.2284,0.227,0.2254,0.2245,0.2243,0.2233,0.2237,0.2239,0.2241,0.2245,0.2198,0.2241,0.2241,0.2241,0.2241,0.2241,0,0.2425,0.2413,0.2408,0.2394,0.2389,0.237,0.2357,0.2356,0.2353,0.2341,0.2335,0.233,0.2324,0.2305,0.2297,0.2299,0.2291,0.2298,0.2299,0.2297,0.2255,0.2253,0.2306,0.2306,0.2306,0.2306,0.2306,0.2306,0.2453,0.2457,0.2443,0.2441,0.2429,0.2426,0.242,0.2412,0.2402,0.2397,0.2391,0.2378,0.2364,0.2354,0.2349,0.2343,0.2342,0.2353,0.2345,0.2306,0.23,0.2294,0.2293,0.2353,0.2353,0.2388,0.2389,0.2389]}]]